Home   Weather   Lubbock   Past weeks

Flag for USA Past Weather in Lubbock, Texas, USA — Yesterday and Last 2 Weeks

Now
84 °F

Broken clouds.


Feels Like: 81 °F
Forecast: 60 / 87 °F
Wind: 17 mph from West

Location: Lubbock International Airport

Current Time: Apr 25, 2017 at 3:42:52 pm

Latest Report: Apr 25, 2017 at 2:53 pm


Visibility: 10 mi

Pressure: 29.33 "Hg (26.26 "Hg at 976m altitude)

Humidity: 10%

Dew Point: 23 °F

Location of LubbockLocation

Past Weather in Lubbock — Graph

°F

Lubbock Temperature Yesterday

Maximum temperature yesterday: 94 °F (at 3:03 pm)
Minimum temperature yesterday: 51 °F (at 5:53 am)
Average temperature yesterday: 73 °F

High & Low Weather Summary for the Past Weeks

 TemperatureHumidityPressure
High94 °F (Apr 24, 3:03 pm)97% (Apr 12, 10:53 pm)30.23 "Hg (Apr 12, 10:53 pm)
Low40 °F (Apr 23, 4:53 am)5% (Apr 24, 5:53 pm)29.34 "Hg (Apr 25, 3:53 am)
Average65 °F60%29.91 "Hg
* Reported Apr 10 1:53 pm — Apr 25 1:53 pm, Lubbock, Weather by CustomWeather, © 2017

Note: Actual official high and low records may vary slightly from our data, if they occured in-between our weather recording intervals... More about our weather records

Advertising

Lubbock Weather History for the Previous 24 Hours

Scroll right to see more
 ConditionsComfort  
Time TempWeatherWind HumidityBarometerVisibility
1:53 pm
Tue, Apr 25
82 °FPartly sunny.16 mph13%29.34 "Hg10 mi
12:53 pm84 °FPartly sunny.17 mph11%29.35 "Hg10 mi
11:53 am80 °FBroken clouds.18 mph14%29.38 "Hg10 mi
10:53 am79 °FPartly sunny.18 mph14%29.37 "Hg10 mi
9:53 am77 °FSunny.17 mph18%29.37 "Hg8 mi
8:53 am68 °FBroken clouds.8 mph32%29.39 "Hg10 mi
7:53 am62 °FBroken clouds.10 mph46%29.38 "Hg10 mi
6:53 am62 °FPartly cloudy.10 mph46%29.37 "Hg10 mi
5:53 am62 °FPassing clouds.12 mph54%29.36 "Hg10 mi
4:53 am63 °FPassing clouds.10 mph52%29.35 "Hg10 mi
3:53 am66 °FPassing clouds.18 mph49%29.34 "Hg10 mi
2:53 am68 °FPassing clouds.17 mph45%29.34 "Hg10 mi
1:53 am69 °FPassing clouds.18 mph45%29.36 "Hg10 mi
12:53 am72 °FPartly cloudy.16 mph38%29.38 "Hg10 mi
11:53 pm
Mon, Apr 24
76 °FPartly cloudy.23 mph33%29.39 "Hg10 mi
10:53 pm81 °FPartly cloudy.16 mph9%29.40 "Hg10 mi
9:53 pm83 °FMostly cloudy.15 mph7%29.40 "Hg10 mi
8:53 pm84 °FHigh level clouds.17 mph7%29.39 "Hg10 mi
7:53 pm87 °FMostly cloudy.22 mph6%29.40 "Hg10 mi
6:53 pm89 °FPartly sunny.20 mph6%29.41 "Hg8 mi
5:53 pm94 °FSunny.26 mph5%29.40 "Hg8 mi
4:53 pm93 °FScattered clouds.24 mph8%29.44 "Hg10 mi
3:53 pm94 °FPassing clouds.26 mph7%29.48 "Hg9 mi
3:03 pm94 °FSunny.29 mph7%29.66 "Hg8 mi
Weather by CustomWeather, © 2017

See weather overviewHow to use our weather pages